DELTA 1 DEB, 10214

Orbit data source: Space-Track

DELTA 1 DEB, 10214 is space debris in LEO originally from a launch on Thu, 14 Jul 1977 UTC launched from the Air Force Eastern Test Range (AFETR). Debris objects in space refer to the collection of defunct objects orbiting the Earth. Examples of debris include non-operational satellites, rocket bodies, and fragments generated from explosions, collisions, or faulty payload assembly.

Loading next visibility...
Identifier
10214, 1977-065AT
Orbit
LEO
Country
Flag of USUS
Related business
Manufacturer
Unknown
Mission
Spacecraft
Bus & Motor
Unknown
Mass
Unknown
Launch date (UTC)
1977-07-14 (49 years ago)
Launch vehicle
Unknown
Launch site
Air Force Eastern Test Range (AFETR)
Object type
Payload
Rocket body
Debris
Shape & HBR
Unknown shape, 0.1 m
Radar Cross Section
Medium (>0.1 m² and <1 m²)

Expand to show TLE details & history
Last TLE update: 1 day ago

TLE from 1 day ago
0 DELTA 1 DEB
1 10214U 77065AT  26262.12570327  .00001401  00000-0  46319-3 0  9990
2 10214  28.8756  65.7358 0487011  85.4815 280.1199 13.83521450366278
Epoch: 2026-09-19T03:01Z
TLE epoch observation values (Epoch: 2026-09-19T03:01:00.762Z)
Latitude
Longitude
22.4439°
Altitude
904.149 km
Speed
7.425 km/s
True Right ascension
04h 22m 56s
True Declination
0° 00' 00"
Sunlit
Object was in daylight at epoch
Visualization orbit readout
Latitude
Unknown
Longitude
Unknown
Altitude
Unknown
Speed
Unknown
Apparent Right ascension
Unknown
Apparent Declination
Unknown
Sunlit
N/A
Visualization observer readout
Local Sidereal Time
02:39:44
Azimuth
Unknown
Elevation
Unknown
Doppler factor
Unknown
Orbital elements
Apogee altitude
1,312.499 km
Perigee altitude
598.201 km
Semi-major axis
7,333.487 km
Eccentricity
0.0487
Inclination
28.8756°
RAAN
65.7358°
Arg. of periapsis
85.4815°
True anomaly
274.57529°
Mean anomaly
280.1199°
Eccentric anomaly
277.35248°
Mean motion
3.45603 °/min
Orbital period
104.17 mins
BSTAR
0.00046319
Loading maneuver chart data...
Computing Atmospheric mass density...
Loading historical data...
Loading historical data...
Loading historical data...
Loading historical data...
Loading historical data...
Loading historical data...
Loading historical data...

Documentation

Showing up to 5 results
|